Lewistown, MT

9:31 PM MDT on May 24, 2018 (GMT -0600)
Lewistown Municipal

Weather History for KLWT - June, 2012

Change the Weather History Date:

Tuesday, June 12, 2012

  Actual Average Record
Temperature  
Mean Temperature 57 °F 57 °F  
Max Temperature 73 °F 70 °F 95 °F (1918)
Min Temperature 41 °F 45 °F 29 °F (1969)
Degree Days  
Heating Degree Days 8 8  
Month to date heating degree days 105 114  
Since 1 June heating degree days 105 114  
Since 1 July heating degree days 7368 8088  
Cooling Degree Days 0 0  
Month to date cooling degree days 4 0  
Year to date cooling degree days 4 2  
Since 1 June cooling degree days 4 0  
Growing Degree Days 8 (Base 50)    
Moisture  
Dew Point 44 °F    
Average Humidity 61    
Maximum Humidity 89    
Minimum Humidity 33    
Precipitation  
Precipitation T in 0.11 in 1.64 in (1913)
Month to date precipitation 1.68 1.40  
Year to date precipitation 9.67 7.66  
Snow  
Snow 0.00 in - - ()
Snow Depth 0.00 in    
Sea Level Pressure  
Sea Level Pressure 29.95 in    
Wind  
Wind Speed 5 mph (SSW)    
Max Wind Speed 23 mph    
Max Gust Speed 30 mph    
Visibility 10 miles    
Events Rain    
T = Trace of Precipitation, MM = Missing Value Source: NWS Daily Summary

Daily Weather History Graph

Daily Weather History Graph

Search for Another Location

Airport or City:

Astronomy

Jun. 12, 2012 Rise Set
Actual Time 5:22 AM MDT 9:13 PM MDT
Civil Twilight 4:42 AM MDT 9:53 PM MDT
Nautical Twilight 3:48 AM MDT 10:47 PM MDT
Astronomical Twilight 2:28 AM MDT 12:08 AM MDT
Moon 1:31 AM MDT (6/12) 2:46 PM MDT (6/12)
Length of Visible Light 17h 11m
Length of Day
15h 51m
Last Quarter, 37% of the Moon is Illuminated
Jun 12
Last Quarter
Jun 19
New
Jun 26
First Quarter
Jul 3
Full
Jul 10
Last Quarter

Hourly Weather History & Observations

Time (MDT) Temp. Windchill Dew Point Humidity Pressure Visibility Wind Dir Wind Speed Gust Speed Precip Events Conditions
12:54 AM 46.0 °F 43.1 °F 43.0 °F 89% 30.09 in 10.0 mi ESE 5.8 mph - N/A   Clear
1:54 AM 44.1 °F 40.1 °F 41.0 °F 89% 30.07 in 10.0 mi ESE 6.9 mph - N/A   Clear
2:54 AM 43.0 °F 39.5 °F 39.9 °F 89% 30.07 in 10.0 mi ESE 5.8 mph - N/A   Clear
3:54 AM 43.0 °F 38.8 °F 39.9 °F 89% 30.07 in 10.0 mi SE 6.9 mph - N/A   Clear
4:54 AM 43.0 °F 39.5 °F 39.0 °F 86% 30.06 in 10.0 mi SE 5.8 mph - N/A   Clear
5:54 AM 43.0 °F 40.3 °F 39.0 °F 86% 30.05 in 10.0 mi SE 4.6 mph - N/A   Clear
6:54 AM 46.9 °F - 43.0 °F 86% 30.04 in 10.0 mi SE 3.5 mph - N/A   Clear
7:54 AM 54.0 °F - 45.0 °F 72% 30.02 in 10.0 mi Calm Calm - N/A   Clear
8:54 AM 59.0 °F - 44.1 °F 58% 30.00 in 10.0 mi Calm Calm - N/A   Clear
9:54 AM 64.9 °F - 39.9 °F 40% 29.99 in 10.0 mi West 5.8 mph - N/A   Clear
10:54 AM 66.9 °F - 39.9 °F 37% 29.97 in 10.0 mi WNW 5.8 mph - N/A   Clear
11:54 AM 69.1 °F - 45.0 °F 42% 29.95 in 10.0 mi Variable 3.5 mph - N/A   Clear
12:54 PM 70.0 °F - 46.0 °F 42% 29.93 in 10.0 mi North 8.1 mph - N/A   Scattered Clouds
1:54 PM 72.0 °F - 45.0 °F 38% 29.92 in 10.0 mi West 5.8 mph - N/A   Clear
2:54 PM 72.0 °F - 43.0 °F 35% 29.91 in 10.0 mi NNW 5.8 mph - N/A   Clear
3:54 PM 72.0 °F - 43.0 °F 35% 29.90 in 10.0 mi Calm Calm - N/A   Clear
4:54 PM 72.0 °F - 43.0 °F 35% 29.88 in 10.0 mi NW 5.8 mph - N/A   Clear
5:54 PM 73.0 °F - 42.1 °F 33% 29.86 in 10.0 mi Variable 3.5 mph - N/A   Clear
6:54 PM 66.9 °F - 44.1 °F 44% 29.87 in 10.0 mi WNW 5.8 mph - 0.00 in Rain Light Rain
7:54 PM 66.9 °F - 48.9 °F 52% 29.84 in 10.0 mi Calm Calm - 0.00 in   Mostly Cloudy
8:54 PM 64.0 °F - 46.0 °F 52% 29.83 in 10.0 mi Calm Calm - N/A   Mostly Cloudy
9:54 PM 59.0 °F - 50.0 °F 72% 29.87 in 10.0 mi West 11.5 mph - 0.00 in Rain Light Rain
10:54 PM 55.0 °F - 50.0 °F 83% 29.83 in 10.0 mi SSE 6.9 mph - 0.00 in   Scattered Clouds
11:54 PM 51.1 °F - 46.9 °F 86% 29.83 in 10.0 mi WSW 4.6 mph - N/A   Clear